Location: Unspecified
(0.0000°N, 0.0000°E)
Time: 15:34:05
(UTC+00:00)

Altair - All Passes

Search period start: 07 December 2025 00:00
Search period end: 17 December 2025 00:00
Orbit: 1501 x 1682 km, 47.2° (Epoch: 06 December)

Date Brightness Start Highest point End Pass type
(mag) Time Alt. Az. Time Alt. Az. Time Alt. Az.
07 Dec - 08:12:34 10° NNW 08:21:01 41° NE 08:29:28 10° ESE daylight
07 Dec - 10:17:05 10° WNW 10:25:27 40° SW 10:34:00 10° SSE daylight
07 Dec - 18:59:33 10° S 19:05:49 18° SE 19:12:02 10° E visible
07 Dec - 21:00:40 10° SW 21:10:54 87° SE 21:20:59 10° NE visible
07 Dec - 23:09:07 10° W 23:15:49 20° NW 23:22:27 10° N visible
08 Dec - 07:47:36 10° NNW 07:55:47 36° NE 08:03:58 10° ESE daylight
08 Dec - 09:51:38 10° WNW 10:00:13 46° SW 10:08:59 10° SSE daylight
08 Dec - 18:35:03 10° SSE 18:40:27 15° SE 18:45:49 10° ESE visible
08 Dec - 20:35:27 10° SW 20:45:38 79° SE 20:55:43 10° NE visible
08 Dec - 22:43:10 10° W 22:50:29 22° NW 22:57:45 10° N visible
09 Dec - 07:22:40 10° N 07:30:33 32° NE 07:38:25 10° ESE daylight
09 Dec - 09:26:14 10° WNW 09:35:00 51° SW 09:43:55 10° SSE daylight
09 Dec - 18:10:46 10° SSE 18:15:04 13° SE 18:19:21 10° ESE visible
09 Dec - 20:10:15 10° SSW 20:20:22 71° SE 20:30:24 10° NE visible
09 Dec - 22:17:19 10° W 22:25:10 25° NW 22:32:58 10° N visible
10 Dec - 06:57:47 10° N 07:05:19 28° NE 07:12:48 10° ESE daylight
10 Dec - 09:00:52 10° NW 09:09:48 58° SW 09:18:50 10° SSE daylight
10 Dec - 17:47:01 10° SSE 17:49:39 11° SE 17:52:18 10° ESE daylight
10 Dec - 19:45:05 10° SSW 19:55:06 64° SE 20:05:03 10° NE visible
10 Dec - 21:51:32 10° WSW 21:59:51 29° NW 22:08:06 10° N visible
11 Dec - 06:32:56 10° N 06:40:04 25° NE 06:47:07 10° E daylight
11 Dec - 08:35:33 10° NW 08:44:35 65° SW 08:53:44 10° SSE daylight
11 Dec - 10:48:51 10° SW 10:49:47 10° SW 10:50:42 10° SW daylight
11 Dec - 19:19:56 10° SSW 19:29:50 57° SE 19:39:41 10° NE visible
11 Dec - 21:25:51 10° WSW 21:34:33 33° NW 21:43:13 10° N visible
12 Dec - 06:08:09 10° N 06:14:48 22° NE 06:21:21 10° E daylight
12 Dec - 08:10:16 10° NW 08:19:23 73° SW 08:28:35 10° SSE daylight
12 Dec - 10:21:09 10° WSW 10:24:26 12° SW 10:27:43 10° SSW daylight
12 Dec - 18:54:51 10° SSW 19:04:34 51° SE 19:14:15 10° ENE visible
12 Dec - 21:00:14 10° WSW 21:09:16 37° NW 21:18:15 10° NNE visible
13 Dec - 05:43:28 10° N 05:49:30 19° NE 05:55:29 10° E daylight
13 Dec - 07:45:00 10° NW 07:54:11 82° SW 08:03:25 10° SE daylight
13 Dec - 09:54:38 10° WSW 09:59:05 14° SW 10:03:36 10° SSW daylight
13 Dec - 18:29:47 10° SSW 18:39:17 46° SE 18:48:47 10° ENE visible
13 Dec - 20:34:40 10° WSW 20:43:58 41° NW 20:53:15 10° NNE visible
14 Dec - 05:18:52 10° N 05:24:12 16° NE 05:29:29 10° E visible
14 Dec - 07:19:46 10° NW 07:29:00 90° ENE 07:38:13 10° SE daylight
14 Dec - 09:28:27 10° W 09:33:47 17° SW 09:39:10 10° S daylight
14 Dec - 18:04:45 10° SSW 18:14:00 41° SE 18:23:16 10° ENE visible
14 Dec - 20:09:10 10° WSW 20:18:41 46° NW 20:28:12 10° NNE visible
15 Dec - 04:54:27 10° NNE 04:58:53 14° NE 05:03:17 10° ENE visible
15 Dec - 06:54:34 10° NW 07:03:48 81° NE 07:12:59 10° SE daylight
15 Dec - 09:02:27 10° W 09:08:29 19° SW 09:14:34 10° S daylight
15 Dec - 17:39:45 10° SSW 17:48:43 36° SE 17:57:42 10° ENE daylight
15 Dec - 19:43:42 10° WSW 19:53:25 52° NW 20:03:08 10° NNE visible
16 Dec - 04:30:21 10° NNE 04:33:33 12° NE 04:36:44 10° ENE visible
16 Dec - 06:29:24 10° NNW 06:38:36 73° NE 06:47:44 10° SE daylight
16 Dec - 08:36:35 10° W 08:43:12 22° SW 08:49:52 10° S daylight
16 Dec - 17:14:49 10° S 17:23:25 32° SE 17:32:04 10° ENE daylight
16 Dec - 19:18:18 10° SW 19:28:08 58° NW 19:38:02 10° NNE visible
